Weather History for Oseberg, Norway

Change the Weather History Date:

Wednesday, December 12, 2012

  Actual Average Record
Temperature  
Mean Temperature 17 °F -  
Max Temperature 37 °F 45 °F 51 °F (2004)
Min Temperature -3 °F 40 °F -3 °F (2012)
Degree Days  
Heating Degree Days 48    
Moisture  
Dew Point 25 °F    
Average Humidity 77    
Maximum Humidity 93    
Minimum Humidity 26    
Precipitation  
Precipitation 0.02 in - - ()
Sea Level Pressure  
Sea Level Pressure 29.91 in    
Wind  
Wind Speed 11 mph ()    
Max Wind Speed 26 mph    
Max Gust Speed 28 mph    
Visibility 6.2 miles    
Events Rain , Snow    
Averages and records for this station are not official NWS values.
T = Trace of Precipitation, MM = Missing Value Source: Averaged Metar Reports

Daily Weather History Graph

Daily Weather History Graph

Search for Another Location

Airport:

Trip Planner

Search our weather history database for the weather conditions in past years. The results will help you decide how hot, cold, wet, or windy it might be!

Date:

Astronomy

Dec. 12, 2012 Rise Set
Actual Time 9:47 AM CET 3:37 PM CET
Civil Twilight 8:48 AM CET 4:36 PM CET
Nautical Twilight 7:51 AM CET 5:33 PM CET
Astronomical Twilight 6:58 AM CET 6:26 PM CET
Moon 8:24 AM CET (12/12) 3:06 PM CET (12/12)
Length of Visible Light 7h 47m
Length of Day
5h 50m
Waning Crescent, 1% of the Moon is Illuminated
Dec 12
Waning Crescent
Dec 13
New
Dec 20
First Quarter
Dec 28
Full
Jan 5
Last Quarter

Hourly Weather History & Observations

Time (CET) Temp. Windchill Dew Point Humidity Pressure Visibility Wind Dir Wind Speed Gust Speed Precip Events Conditions
12:20 AM 37.4 °F 30.3 °F 35.6 °F 93% 30.01 in 6.2 mi West 10.4 mph - N/A   Mostly Cloudy
12:50 AM 35.6 °F 27.5 °F 33.8 °F 93% 30.01 in 6.2 mi West 11.5 mph - N/A   Mostly Cloudy
1:00 AM 6 °F - 3 °F 80% 30.16 in - North 4.5 mph - -  
1:50 AM 37.4 °F 29.8 °F 33.8 °F 87% 29.98 in 6.2 mi WNW 11.5 mph - N/A   Mostly Cloudy
2:50 AM 37.4 °F 27.5 °F 32.0 °F 81% 29.98 in 6.2 mi North 18.4 mph - N/A   Mostly Cloudy
3:50 AM 39.2 °F 30.2 °F 30.2 °F 70% 29.95 in 6.2 mi North 17.3 mph - N/A   Mostly Cloudy
4:00 AM 1 °F - -3 °F 75% 30.13 in - North 4.5 mph - -  
4:50 AM 39.2 °F 30.8 °F 24.8 °F 56% 29.92 in 6.2 mi NNW 15.0 mph - N/A   Mostly Cloudy
5:50 AM 41.0 °F 33.5 °F 30.2 °F 65% 29.89 in 6.2 mi North 13.8 mph - N/A   Mostly Cloudy
6:20 AM 39.2 °F 31.2 °F 26.6 °F 61% 29.89 in 6.2 mi NNE 13.8 mph - N/A   Mostly Cloudy
6:50 AM 39.2 °F 31.6 °F 6.8 °F 26% 29.89 in 6.2 mi NNE 12.7 mph - N/A   Mostly Cloudy
7:00 AM -3 °F - -7 °F 73% 30.11 in - North 4.5 mph - -  
7:50 AM 39.2 °F 33.0 °F 32.0 °F 75% 29.89 in 6.2 mi NE 9.2 mph - N/A   Mostly Cloudy
8:20 AM 39.2 °F 31.2 °F 30.2 °F 70% 29.86 in 6.2 mi NE 13.8 mph - N/A   Scattered Clouds
8:50 AM 37.4 °F 27.8 °F 30.2 °F 75% 29.86 in 6.2 mi North 17.3 mph - N/A   Drizzle
9:20 AM 39.2 °F 33.0 °F 32.0 °F 75% 29.86 in 6.2 mi Variable 9.2 mph - N/A Rain Light Rain Showers
9:50 AM 39.2 °F 35.9 °F 32.0 °F 75% 29.86 in 6.2 mi Variable 4.6 mph - N/A Rain Light Rain Showers
10:00 AM 4 °F - -0 °F 75% 30.10 in - North 4.5 mph - -  
10:20 AM 39.2 °F 34.2 °F 32.0 °F 75% 29.86 in 6.2 mi NNE 6.9 mph - N/A   Mostly Cloudy
10:50 AM 37.4 °F 29.3 °F 32.0 °F 81% 29.86 in 6.2 mi East 12.7 mph - N/A   Mostly Cloudy
11:20 AM 37.4 °F 31.4 °F 30.2 °F 75% 29.86 in 6.2 mi East 8.1 mph - N/A   Scattered Clouds
11:50 AM 39.2 °F 34.2 °F 30.2 °F 70% 29.86 in 6.2 mi ENE 6.9 mph - N/A   Partly Cloudy
12:20 PM 39.2 °F 32.0 °F 32.0 °F 75% 29.86 in 6.2 mi East 11.5 mph - N/A   Partly Cloudy
12:50 PM 39.2 °F 33.0 °F 32.0 °F 75% 29.86 in 6.2 mi East 9.2 mph - N/A   Partly Cloudy
1:00 PM 10 °F - 6 °F 75% 30.09 in - Calm Calm - -  
2:20 PM 37.4 °F 27.5 °F 32.0 °F 81% 29.83 in 6.2 mi East 18.4 mph - N/A   Mostly Cloudy
2:50 PM 37.4 °F 27.8 °F 32.0 °F 81% 29.83 in 6.2 mi East 17.3 mph - N/A   Scattered Clouds
3:50 PM 37.4 °F 27.8 °F 30.2 °F 75% 29.83 in 6.2 mi East 17.3 mph - N/A   Mostly Cloudy
4:00 PM 2 °F - -3 °F 72% 30.10 in - North 2.2 mph - -  
4:20 PM 37.4 °F 26.9 °F 32.0 °F 81% 29.83 in 6.2 mi ENE 20.7 mph - N/A   Mostly Cloudy
4:50 PM 35.6 °F 24.2 °F 33.8 °F 93% 29.83 in 6.2 mi East 21.9 mph - N/A   Mostly Cloudy
5:50 PM 37.4 °F 28.2 °F 33.8 °F 87% 29.80 in 6.2 mi East 16.1 mph 27.6 mph N/A Rain Light Rain Showers
6:20 PM 37.4 °F 25.9 °F 32.0 °F 81% 29.80 in 6.2 mi East 25.3 mph - N/A Rain Light Rain Showers
6:50 PM 37.4 °F 26.9 °F 30.2 °F 75% 29.80 in 6.2 mi East 20.7 mph - N/A   Mostly Cloudy
7:00 PM 5 °F - 2 °F 79% 30.09 in - NW 2.2 mph - -  
7:20 PM 37.4 °F 26.9 °F 30.2 °F 75% 29.80 in 6.2 mi East 20.7 mph - N/A   Scattered Clouds
7:50 PM 37.4 °F 26.9 °F 32.0 °F 81% 29.80 in 6.2 mi East 20.7 mph - N/A   Partly Cloudy
8:20 PM 37.4 °F 26.6 °F 30.2 °F 75% 29.80 in 6.2 mi East 21.9 mph - N/A   Partly Cloudy
8:50 PM 37.4 °F 26.1 °F 32.0 °F 81% 29.80 in 6.2 mi ENE 24.2 mph - N/A   Scattered Clouds
9:50 PM 35.6 °F 23.2 °F 33.8 °F 93% 29.80 in 6.2 mi ENE 26.5 mph - N/A   Scattered Clouds
10:00 PM 0 °F - -4 °F 76% 30.11 in - SW 2.2 mph - -  
10:50 PM 33.8 °F 21.9 °F 32.0 °F 93% 29.80 in 6.2 mi East 21.9 mph - N/A Rain , Snow Light Rain Showers
11:50 PM 35.6 °F 25.5 °F 32.0 °F 87% 29.80 in 6.2 mi East 17.3 mph - N/A   Mostly Cloudy